Regional Weather Roundup
Issued by NWS

Home | Current Version | Previous Version | Text Only | Print | Product List | Glossary Off
Versions: 1 2 3 4 5 6 7 8 9 10 11 12 13 14 15 16 17 18 19 20 21 22 23 24 25 26 27 28 29 30 31 32 33 34 35 36 37 38 39 40 41 42 43 44 45 46 47 48 49 50

000
ASUS45 KPSR 200110
RWRAZ

ARIZONA HOURLY REGIONAL WEATHER ROUNDUP
NATIONAL WEATHER SERVICE PHOENIX AZ
600 PM MST SUN NOV 19 2017

NOTE: FAIR INDICATES FEW OR NO CLOUDS BELOW 12,000 FEET WITH NO
SIGNIFICANT WEATHER AND/OR OBSTRUCTIONS TO VISIBILITY.

AZZ001>003-036-200200-
NORTHWEST ARIZONA

CITY           SKY/WX    TMP DP  RH WIND       PRES   REMARKS
BULLHEAD CITY  PTCLDY    66   7   9 N14       30.00F
KINGMAN        PTCLDY    52   6  15 CALM      30.08R
$$

AZZ004>008-015-016-018-200200-
NORTH CENTRAL ARIZONA

CITY           SKY/WX    TMP DP  RH WIND       PRES   REMARKS
GRAND CANYON   PTCLDY    34   3  27 CALM      30.19S
WILLIAMS       PTCLDY    48   3  15 CALM      30.18S
PRESCOTT       PTCLDY    50  13  22 CALM      30.12R
FLAGSTAFF      PTCLDY    36   3  25 CALM      30.20R
PAYSON         PTCLDY    50  12  22 CALM      30.13R
PAGE           PTCLDY    44  15  31 CALM      30.18R
$$

AZZ009>014-017-200200-
NORTHEAST ARIZONA

CITY           SKY/WX    TMP DP  RH WIND       PRES   REMARKS
WINSLOW        CLEAR     40   3  21 NW8       30.17R WCI  34
SAINT JOHNS    CLEAR     42   8  24 W6        30.14R
WINDOW ROCK    PTCLDY    41   6  23 E3        30.19R
SHOW LOW       PTCLDY    45   7  21 NW3       30.19R
$$

AZZ540-542>544-546-548-200200-
GREATER PHOENIX AREA

CITY           SKY/WX    TMP DP  RH WIND       PRES   REMARKS
PHOENIX        PTCLDY    76  24  14 CALM      29.92R
BUCKEYE        CLEAR     68  39  34 W6        29.94R
GLENDALE       PTCLDY    75  25  15 CALM      29.94S
LUKE AFB       CLEAR     70  33  25 W5        29.91S
DEER VALLEY    CLEAR     72  21  14 CALM      29.94R
SCOTTSDALE     CLEAR     74  27  17 CALM      29.96R
MESA-FALCON    CLEAR     73  19  13 W5        29.94R
MESA-GATEWAY   CLEAR     72  21  15 W7        29.95R
CHANDLER       CLEAR     75  21  13 NW5       29.93R
$$

AZZ539-553-200200-
SOUTHWEST MARICOPA COUNTY AND PINAL COUNTY

CITY           SKY/WX    TMP DP  RH WIND       PRES   REMARKS
CASA GRANDE    NOT AVBL
$$

AZZ503-504-507>509-200200-
SOUTHEAST ARIZONA

CITY           SKY/WX    TMP DP  RH WIND       PRES   REMARKS
TUCSON         PTCLDY    73  24  16 E7        29.98R
DAVIS-MONTHAN  CLEAR     69  23  18 SE3       29.97R
RYAN FIELD     CLEAR     70  25  18 MISG      29.98R
NOGALES        CLEAR     65  25  22 E9        30.00R
SIERRA VISTA   CLEAR     58  22  24 E3        30.08R
DOUGLAS        CLEAR     59  23  25 E7        30.06R
SAFFORD        CLEAR     61  15  16 S5        30.04R
$$

AZZ532-200200-
SOUTHWEST ARIZONA

CITY           SKY/WX    TMP DP  RH WIND       PRES   REMARKS
YUMA           PTCLDY    71  15  11 N8        29.95R
$$

CAZ041-043-047-048-061-525>527-560>570-200200-
SOUTHERN CALIFORNIA

CITY           SKY/WX    TMP DP  RH WIND       PRES   REMARKS
DOWNTOWN L.A.  CLEAR     68  36  30 W5        29.95S
L.A. AIRPORT   PTCLDY    64  49  57 W18       29.96F
SAN DIEGO      PTCLDY    66  52  60 NW6       29.97R
BURBANK        PTCLDY    70  30  22 S7        29.95F
ONTARIO        MOCLDY    71  19  14 CALM      29.96S
RIVERSIDE      PTCLDY    73  24  16 W5        29.96R
PALM SPRINGS   PTCLDY    70  27  20 CALM      29.99R
EL CENTRO NAS  CLEAR     68  22  17 N3        29.97S
IMPERIAL       CLEAR     71  23  16 CALM      29.95S
BLYTHE         PTCLDY    68   8   9 N8        29.97S
NEEDLES        PTCLDY    66  10  11 NW7       30.01S
$$

NVZ020-UTZ003-200200-
SOUTHERN NEVADA-UTAH

CITY           SKY/WX    TMP DP  RH WIND       PRES   REMARKS
LAS VEGAS      MOCLDY    59  11  15 CALM      30.06S
SALT LAKE CITY MOCLDY    40  30  67 NW3       30.12F
$$

NMZ009-TXZ055-200200-
NEW MEXICO-WEST TEXAS

CITY           SKY/WX    TMP DP  RH WIND       PRES   REMARKS
ALBUQUERQUE    CLOUDY    48   3  15 S5        30.15S
EL PASO        PTCLDY    57  13  17 NE5       30.11R
$$


........................KEY........................
SKY/WX - SKY CONDITION/WEATHER
TMP    - TEMPERATURE IN FAHRENHEIT
DP     - DEW POINT IN FAHRENHEIT
RH     - RELATIVE HUMIDITY IN PERCENT
WIND   - DIRECTION AND SPEED IN MILES PER HOUR (MPH)
VRB    - VARIABLE WIND DIRECTION
PRES   - MEAN SEA LEVEL PRESSURE IN INCHES OF MERCURY
         F - FALLING PRESSURE   R - RISING PRESSURE
         S - STEADY PRESSURE
VSB    - VISIBILITY IN MILES
HX     - HEAT INDEX IN FAHRENHEIT
WCI    - WIND CHILL INDEX IN FAHRENHEIT
TC     - TEMPERATURE IN CELSIUS WHICH IS ALSO KNOWN AS
         TEMPERATURE IN CENTIGRADE
AFB    - AIR FORCE BASE
         LUKE AFB IS LUKE AIR FORCE BASE
         DAVIS-MONTHAN IS DAVIS-MONTHAN AIR FORCE BASE
NAS    - NAVAL AIR STATION
         EL CENTRO NAS IS EL CENTRO NAVAL AIR STATION
N/A    - NOT AVAILABLE




USA.gov is the U.S. government's official web portal to all federal, state and local government web resources and services.